{"data":{"norad_id":45447,"intl_designator":"2020-020Z","name":"ONEWEB-0046","alt_names":[],"object_type":"PAYLOAD","status":"ACTIVE","operator":null,"country":"UK","launch_date":"2020-03-21","launch_site_code":"TYMSC","launch_vehicle":null,"mission":null,"orbit_class":"UNKNOWN","rcs_meters":null,"size_class":null,"mass_kg":null,"dimensions":null,"purposes":["comms"],"wikipedia_slug":null,"has_3d_model":false,"image_url":null,"decayed_at":null,"tle_current":{"epoch":"2026-05-25T02:28:52.036320Z","epoch_age_seconds":80297,"freshness":"FRESH","line1":"1 45447U 20020Z   26145.10338005  .00000279  00000+0  75131-3 0  9993","line2":"2 45447  87.8917  25.6619 0002066  83.0841 277.0522 13.11418383299584","mean_motion":13.11418383,"eccentricity":0.0002066,"inclination_deg":87.8917,"raan_deg":25.6619,"arg_perigee_deg":83.0841,"mean_anomaly_deg":277.0522,"bstar":0.00075131,"rev_number":29958,"period_min":109.8047746369,"perigee_km":1216.1078505112,"apogee_km":1219.2464409162,"semimajor_km":7595.8141457137,"source":"CELESTRAK","updated_at":"2026-05-25T13:38:22.345929Z"}}}